Tracking 19794 objects as of 21-Jul-2019
HD Live streaming from Space Station
objects crossing your sky now

COSMOS 1275 DEB

Track COSMOS 1275 DEB now!
10-day predictions


NORAD ID: 12706
Int'l Code: 1981-053BA
Perigee: 903.5 km
Apogee: 1,068.3 km
Inclination: 82.9 °
Period: 104.7 minutes
Semi major axis: 7356 km
RCS: 0.0482 m2 (small)
Launch date: June 4, 1981
Source: Commonwealth of Independent States (former USSR) (CIS)
Launch site: PLESETSK MISSILE AND SPACE COMPLEX (PKMTR)

Note: This is SATELLITE DEBRIS
aabbcc
Your satellite tracking list
Your tracking list is empty




NASA's NSSDC Master Catalog

Two Line Element Set (TLE):
1 12706U 81053BA  19200.92403178 +.00000153 +00000-0 +13770-3 0  9999
2 12706 082.8809 034.8765 0111968 257.1016 223.7591 13.75820560891581
Source of the keplerian elements: AFSPC